Tracking 20942 objects as of 14-Jul-2020
HD Live streaming from Space Station
objects crossing your sky now

COSMOS 457

Track COSMOS 457 now!
10-day predictions
COSMOS 457 is classified as:


NORAD ID: 5614
Int'l Code: 1971-099A
Perigee: 1,189.3 km
Apogee: 1,224.7 km
Inclination: 74.0 °
Period: 109.4 minutes
Semi major axis: 7577 km
RCS: 3.3674 m2 (large)
Launch date: November 20, 1971
Source: Commonwealth of Independent States (former USSR) (CIS)
Launch site: PLESETSK MISSILE AND SPACE COMPLEX (PKMTR)
aabbcc
Your satellite tracking list
Your tracking list is empty




NASA's NSSDC Master Catalog

Two Line Element Set (TLE):
1  5614U 71099A   20195.79310196 +.00000349 +00000-0 +96820-3 0  9999
2  5614 074.0358 012.4104 0023353 343.0773 028.9601 13.16048514336810
Source of the keplerian elements: AFSPC